Weather History for KDAW - May, 2013

Change the Weather History Date:

Tuesday, May 14, 2013

  Actual Average (KSFM) Record (KSFM)
Temperature  
Mean Temperature 49 °F -  
Max Temperature 60 °F 62 °F 71 °F (2000)
Min Temperature 39 °F 39 °F 26 °F (1998)
Degree Days  
Heating Degree Days 16    
Moisture  
Dew Point 30 °F    
Average Humidity 52    
Maximum Humidity 79    
Minimum Humidity 26    
Precipitation  
Precipitation 0.00 in - - ()
Sea Level Pressure  
Sea Level Pressure 29.99 in    
Wind  
Wind Speed 6 mph (NW)    
Max Wind Speed 15 mph    
Max Gust Speed 22 mph    
Visibility 10 miles    
Events      
Averages and records for this station are not official NWS values.
T = Trace of Precipitation, MM = Missing Value Source: NWS Daily Summary

Daily Weather History Graph

Daily Weather History Graph

Search for Another Location

Airport or City:

Trip Planner

Search our weather history database for the weather conditions in past years. The results will help you decide how hot, cold, wet, or windy it might be!

Date:

Astronomy

May. 14, 2013 Rise Set
Actual Time 5:20 AM EDT 8:00 PM EDT
Civil Twilight 4:47 AM EDT 8:33 PM EDT
Nautical Twilight 4:06 AM EDT 9:14 PM EDT
Astronomical Twilight 3:19 AM EDT 10:01 PM EDT
Moon 8:57 AM EDT (5/14) 11:44 PM EDT (5/14)
Length of Visible Light 15h 45m
Length of Day
14h 39m
Waxing Crescent, 19% of the Moon is Illuminated
May 14
Waxing Crescent
May 18
First Quarter
May 25
Full
May 31
Last Quarter
Jun 8
New

Hourly Weather History & Observations

Time (EDT) Temp. Windchill Dew Point Humidity Pressure Visibility Wind Dir Wind Speed Gust Speed Precip Events Conditions
12:51 AM 39.9 °F 36.7 °F 30.0 °F 68% 29.99 in 10.0 mi NW 4.6 mph - N/A   Clear
1:51 AM 41.0 °F 38.0 °F 30.9 °F 67% 30.01 in 10.0 mi NW 4.6 mph - N/A   Overcast
2:51 AM 39.0 °F 35.7 °F 30.9 °F 73% 30.00 in 10.0 mi NW 4.6 mph - N/A   Clear
3:51 AM 39.0 °F 34.8 °F 30.9 °F 73% 30.00 in 10.0 mi NW 5.8 mph - N/A   Clear
4:51 AM 39.0 °F 35.7 °F 30.9 °F 73% 30.00 in 10.0 mi NW 4.6 mph - N/A   Clear
5:51 AM 39.0 °F - 33.1 °F 79% 30.02 in 10.0 mi Calm Calm - N/A   Mostly Cloudy
6:51 AM 41.0 °F 38.0 °F 35.1 °F 79% 30.03 in 10.0 mi NW 4.6 mph - N/A   Overcast
7:51 AM 46.9 °F - 35.1 °F 63% 30.03 in 10.0 mi NW 4.6 mph - N/A   Clear
8:51 AM 51.1 °F - 30.0 °F 44% 30.03 in 10.0 mi NW 12.7 mph - N/A   Clear
9:51 AM 52.0 °F - 28.9 °F 41% 30.01 in 10.0 mi NW 13.8 mph 18.4 mph N/A   Clear
10:51 AM 53.1 °F - 28.9 °F 40% 30.00 in 10.0 mi WNW 10.4 mph 18.4 mph N/A   Scattered Clouds
11:51 AM 53.1 °F - 26.1 °F 35% 29.99 in 10.0 mi NNW 15.0 mph 21.9 mph N/A   Scattered Clouds
12:51 PM 55.9 °F - 25.0 °F 30% 29.98 in 10.0 mi Variable 4.6 mph 21.9 mph N/A   Partly Cloudy
2:51 PM 59.0 °F - 24.1 °F 26% 29.96 in 10.0 mi Variable 6.9 mph 18.4 mph N/A   Partly Cloudy
3:51 PM 55.9 °F - 25.0 °F 30% 29.95 in 10.0 mi NW 10.4 mph 17.3 mph N/A   Partly Cloudy
4:51 PM 59.0 °F - 24.1 °F 26% 29.94 in 10.0 mi Variable 6.9 mph - N/A   Mostly Cloudy
5:51 PM 55.9 °F - 24.1 °F 29% 29.94 in 10.0 mi NW 8.1 mph - N/A   Overcast
6:51 PM 55.9 °F - 25.0 °F 30% 29.95 in 10.0 mi NW 10.4 mph - N/A   Overcast
7:51 PM 52.0 °F - 30.9 °F 45% 29.97 in 10.0 mi Calm Calm - N/A   Overcast
9:51 PM 48.9 °F - 35.1 °F 59% 30.01 in 10.0 mi Calm Calm - N/A   Overcast
10:51 PM 46.9 °F - 37.0 °F 68% 30.02 in 10.0 mi Calm Calm - N/A   Overcast
11:51 PM 48.0 °F - 34.0 °F 58% 30.02 in 10.0 mi Calm Calm - N/A   Overcast